"startDT [UTC]","vpos","CH4 [ppm]","stdev(CH4) [ppm]","CO2 [ppm]","stdev(CO2) [ppm]","H2O [ppm]","stdev(H2O)","p_LGR [torr]","T_LGR [C]","mt1_LGR [us]","mt2_LGR [us]","T_ECpre [C]","T_EC1 [C]","T_EC2 [C]","p_inlet [hPa]","p_in [hPa]","p_out [hPa]","T_inlet [C]","RH_inlet [%]","dwpt_inlet [C]","T_vent [C]","RH_vent [%]","dwpt_vent [C]","flow_vent [l min-1]","flow_inlet [l min-1]","dwpt_sample [C]","T_room [C]"
2012-10-17 00:00:00,0.0,1.9239,0.0009,402.34,0.30,267.5,31.3,138.09,30.09,24.65,36.36,0.04,-272.74,-272.74,-47,567,-935,24.3,5.4,-16.7,24.6,5.5,-16.5,5.73,2.37,-22.9,29.7
2012-10-17 00:01:00,0.0,1.9220,0.0012,402.17,0.30,268.1,26.9,138.09,30.09,24.64,36.37,0.04,-272.74,-272.75,-48,566,-934,24.3,5.6,-16.5,24.6,5.6,-16.2,5.73,2.33,-22.9,29.7
2012-10-17 00:02:00,0.0,1.9210,0.0014,402.30,0.35,265.5,40.3,138.09,30.09,24.64,36.36,0.04,-272.74,-272.74,-48,566,-934,24.3,5.5,-16.5,24.6,5.6,-16.2,5.73,2.33,-22.9,29.8
2012-10-17 00:03:00,0.0,1.9209,0.0013,402.44,0.34,260.7,26.2,138.09,30.09,24.64,36.35,0.04,-272.74,-272.75,-48,566,-935,24.3,5.5,-16.7,24.6,5.5,-16.4,5.73,2.37,-22.9,29.8
2012-10-17 00:04:00,0.0,1.9198,0.0012,402.43,0.30,260.4,31.0,138.08,30.09,24.65,36.36,0.04,-272.75,-272.75,-48,566,-935,24.3,5.6,-16.3,24.6,5.6,-16.1,5.73,2.41,-22.9,29.8
2012-10-17 00:05:00,0.0,1.9212,0.0011,402.49,0.30,256.2,28.1,138.09,30.09,24.65,36.35,0.04,-272.74,-272.75,-47,566,-934,24.3,6.6,-14.4,24.6,6.7,-14.1,5.73,2.40,-22.9,29.8
2012-10-17 00:06:00,0.0,1.9225,0.0011,402.54,0.29,262.0,33.1,138.09,30.09,24.65,36.35,0.04,-272.75,-272.75,-47,566,-934,24.3,6.5,-14.6,24.6,6.5,-14.4,5.73,2.34,-22.9,29.7
2012-10-17 00:07:00,0.0,1.9237,0.0014,402.41,0.30,273.8,33.5,138.09,30.09,24.65,36.36,0.04,-272.75,-272.75,-47,566,-935,24.3,6.1,-15.4,24.6,6.2,-15.0,5.73,2.32,-22.9,29.8
2012-10-17 00:08:00,0.0,1.9244,0.0009,402.47,0.33,256.7,30.8,138.09,30.09,24.65,36.36,0.04,-272.75,-272.75,-48,566,-934,24.3,5.6,-16.4,24.6,5.6,-16.1,5.73,2.35,-22.9,29.8
2012-10-17 00:09:00,0.0,1.9274,0.0015,402.55,0.31,256.3,27.8,138.09,30.09,24.65,36.36,0.04,-272.74,-272.74,-48,566,-934,24.3,6.3,-15.1,24.6,6.3,-14.9,5.73,2.40,-22.9,29.8
2012-10-17 00:10:00,0.0,1.9301,0.0013,402.41,0.33,263.3,30.4,138.09,30.09,24.64,36.36,0.04,-272.75,-272.74,-48,566,-935,24.3,6.1,-15.5,24.6,6.1,-15.1,5.73,2.40,-22.9,29.8
2012-10-17 00:11:00,0.0,1.9311,0.0008,402.60,0.27,258.7,35.9,138.08,30.09,24.65,36.36,0.04,-272.74,-272.75,-47,567,-934,24.3,5.6,-16.4,24.6,5.7,-16.1,5.73,2.35,-22.9,29.8
2012-10-17 00:12:00,0.0,1.9312,0.0012,402.64,0.33,259.9,31.7,138.09,30.09,24.65,36.36,0.04,-272.74,-272.74,-47,567,-934,24.3,5.5,-16.6,24.6,5.6,-16.3,5.73,2.33,-22.9,29.8
2012-10-17 00:13:00,0.0,1.9305,0.0014,402.59,0.27,254.8,28.8,138.08,30.09,24.65,36.36,0.04,-272.74,-272.74,-47,566,-935,24.3,5.5,-16.6,24.6,5.5,-16.4,5.73,2.35,-22.9,29.8
2012-10-17 00:14:00,0.0,1.9312,0.0011,402.59,0.30,256.8,32.9,138.08,30.09,24.65,36.36,0.04,-272.74,-272.75,-47,567,-934,24.3,5.5,-16.6,24.6,5.5,-16.4,5.73,2.40,-22.9,29.8
2012-10-17 00:15:00,0.0,1.9302,0.0013,402.57,0.33,263.9,33.3,138.08,30.09,24.64,36.37,0.04,-272.74,-272.75,-46,567,-934,24.3,5.5,-16.7,24.6,5.5,-16.5,5.73,2.41,-22.8,29.8
2012-10-17 00:16:00,0.0,1.9311,0.0020,402.55,0.37,254.9,35.7,138.08,30.09,24.65,36.36,0.04,-272.74,-272.74,-46,567,-935,24.3,5.4,-16.7,24.6,5.5,-16.5,5.73,2.39,-22.9,29.8
2012-10-17 00:17:00,0.0,1.9264,0.0016,402.66,0.41,256.9,34.5,138.08,30.09,24.65,36.36,0.04,-272.74,-272.74,-45,567,-934,24.3,5.5,-16.7,24.6,5.5,-16.5,5.73,2.35,-22.9,29.8
2012-10-17 00:18:00,0.0,1.9277,0.0012,402.64,0.31,261.2,34.1,138.08,30.09,24.65,36.36,0.04,-272.74,-272.74,-45,567,-934,24.3,5.5,-16.6,24.6,5.5,-16.4,5.73,2.34,-22.8,29.8
2012-10-17 00:19:00,0.0,1.9283,0.0012,402.51,0.28,262.9,31.7,138.08,30.09,24.64,36.36,0.04,-272.74,-272.74,-45,567,-935,24.3,5.7,-16.1,24.6,5.7,-16.0,5.73,2.37,-22.8,29.8
2012-10-17 00:20:00,0.0,1.9272,0.0011,402.58,0.30,255.7,28.1,138.08,30.09,24.64,36.36,0.04,-272.74,-272.74,-44,567,-934,24.3,5.7,-16.2,24.6,5.7,-15.9,5.73,2.41,-22.9,29.8
2012-10-17 00:21:00,0.0,1.9293,0.0014,402.58,0.30,253.5,31.5,138.08,30.09,24.64,36.36,0.04,-272.74,-272.74,-44,567,-935,24.3,5.5,-16.6,24.6,5.5,-16.3,5.73,2.42,-22.8,29.8
2012-10-17 00:22:00,0.0,1.9274,0.0012,402.55,0.32,260.1,34.6,138.09,30.09,24.65,36.36,0.04,-272.74,-272.74,-43,567,-935,24.3,5.5,-16.6,24.6,5.5,-16.4,5.73,2.39,-22.8,29.8
2012-10-17 00:23:00,0.0,1.9275,0.0011,402.63,0.31,261.5,26.6,138.09,30.09,24.65,36.35,0.04,-272.74,-272.74,-43,567,-934,24.3,5.5,-16.6,24.6,5.5,-16.3,5.73,2.36,-22.8,29.8
2012-10-17 00:24:00,0.0,1.9276,0.0008,402.69,0.29,265.9,35.3,138.09,30.09,24.65,36.36,0.04,-272.75,-272.75,-43,567,-934,24.3,5.5,-16.5,24.6,5.5,-16.3,5.73,2.35,-22.8,29.8
2012-10-17 00:25:00,0.0,1.9285,0.0009,402.74,0.30,263.0,29.7,138.08,30.09,24.64,36.35,0.04,-272.74,-272.74,-43,567,-935,24.3,5.6,-16.5,24.6,5.6,-16.3,5.73,2.37,-22.8,29.8
2012-10-17 00:26:00,0.0,1.9234,0.0011,402.27,0.26,265.5,32.8,138.08,30.09,24.65,36.37,0.04,-272.74,-272.74,-43,567,-935,24.3,5.6,-16.4,24.6,5.6,-16.2,5.73,2.40,-22.8,29.8
2012-10-17 00:27:00,0.0,1.9255,0.0010,402.41,0.34,260.7,34.5,138.08,30.10,24.65,36.36,0.04,-272.74,-272.75,-43,567,-934,24.3,5.6,-16.3,24.6,5.6,-16.1,5.73,2.42,-22.8,29.8
2012-10-17 00:28:00,0.0,1.9271,0.0011,402.62,0.28,259.3,29.9,138.08,30.10,24.65,36.35,0.04,-272.74,-272.75,-43,567,-935,24.3,6.7,-14.3,24.6,6.6,-14.2,5.73,2.40,-22.8,29.8
2012-10-17 00:29:00,0.0,1.9284,0.0010,402.52,0.27,262.8,28.9,138.08,30.10,24.65,36.36,0.04,-272.74,-272.74,-43,567,-935,24.3,6.3,-15.0,24.6,6.3,-14.7,5.73,2.37,-22.8,29.8
2012-10-17 00:30:00,0.0,1.9302,0.0011,402.65,0.35,262.1,31.2,138.08,30.10,24.65,36.36,0.04,-272.74,-272.75,-43,567,-934,24.3,5.9,-15.7,24.6,5.9,-15.5,5.73,2.34,-22.8,29.8
2012-10-17 00:31:00,0.0,1.9315,0.0012,402.54,0.26,267.7,40.3,138.09,30.10,24.64,36.37,0.04,-272.75,-272.74,-43,567,-935,24.3,5.9,-15.9,24.6,5.9,-15.6,5.73,2.36,-22.8,29.7
2012-10-17 00:32:00,0.0,1.9320,0.0009,402.60,0.33,270.4,34.0,138.08,30.10,24.65,36.36,0.04,-272.74,-272.75,-43,567,-935,24.3,6.2,-15.2,24.6,6.2,-15.0,5.73,2.40,-22.8,29.8
2012-10-17 00:33:00,0.0,1.9331,0.0015,402.82,0.33,259.0,40.1,138.08,30.11,24.64,36.36,0.04,-272.74,-272.74,-43,567,-934,24.3,6.0,-15.5,24.6,6.1,-15.2,5.73,2.43,-22.8,29.8
2012-10-17 00:34:00,0.0,1.9346,0.0010,402.97,0.29,275.2,27.6,138.08,30.11,24.65,36.36,0.04,-272.74,-272.74,-43,567,-934,24.3,6.0,-15.6,24.6,6.0,-15.4,5.73,2.41,-22.8,29.8
2012-10-17 00:35:00,0.0,1.9348,0.0012,402.98,0.28,258.4,27.8,138.08,30.11,24.65,36.35,0.04,-272.74,-272.74,-43,567,-935,24.3,5.9,-15.7,24.6,6.0,-15.4,5.73,2.38,-22.8,29.8
2012-10-17 00:36:00,0.0,1.9377,0.0015,402.94,0.30,268.5,34.7,138.08,30.11,24.64,36.36,0.04,-272.74,-272.74,-43,567,-934,24.3,6.0,-15.5,24.6,6.0,-15.3,5.73,2.35,-22.8,29.8
2012-10-17 00:37:00,0.0,1.9423,0.0010,402.87,0.27,267.2,34.8,138.08,30.11,24.64,36.36,0.04,-272.74,-272.74,-43,567,-934,24.4,6.0,-15.5,24.6,6.0,-15.3,5.73,2.36,-22.8,29.7
2012-10-17 00:38:00,0.0,1.9421,0.0020,402.98,0.35,269.1,31.3,138.08,30.11,24.65,36.36,0.04,-272.74,-272.74,-43,567,-935,24.4,6.0,-15.6,24.6,6.0,-15.4,5.73,2.39,-22.8,29.8
2012-10-17 00:39:00,0.0,1.9425,0.0013,402.89,0.32,262.5,33.4,138.08,30.10,24.65,36.36,0.04,-272.74,-272.74,-43,567,-934,24.4,5.9,-15.7,24.6,6.0,-15.4,5.73,2.42,-22.8,29.8
2012-10-17 00:40:00,0.0,1.9460,0.0015,403.07,0.28,272.3,34.6,138.08,30.10,24.64,36.35,0.04,-272.74,-272.74,-43,567,-934,24.4,6.0,-15.6,24.7,6.0,-15.4,5.73,2.41,-22.8,29.8
2012-10-17 00:41:00,0.0,1.9454,0.0025,402.92,0.33,262.0,35.2,138.08,30.10,24.65,36.36,0.04,-272.74,-272.74,-42,567,-935,24.4,6.0,-15.6,24.6,6.0,-15.4,5.73,2.38,-22.8,29.7
2012-10-17 00:42:00,0.0,1.9421,0.0013,402.78,0.32,265.7,30.8,138.08,30.10,24.65,36.37,0.04,-272.75,-272.75,-42,567,-935,24.4,6.0,-15.6,24.7,6.0,-15.3,5.73,2.35,-22.7,29.8
2012-10-17 00:43:00,0.0,1.9426,0.0011,402.75,0.28,264.3,25.2,138.08,30.10,24.65,36.36,0.04,-272.74,-272.74,-42,567,-934,24.4,6.0,-15.5,24.7,6.0,-15.2,5.73,2.35,-22.7,29.8
2012-10-17 00:44:00,0.0,1.9321,0.0094,402.35,0.40,272.7,32.7,138.08,30.10,24.65,36.37,0.04,-272.75,-272.75,-43,567,-935,24.4,6.0,-15.5,24.7,6.0,-15.2,5.73,2.38,-22.7,29.8
2012-10-17 00:45:00,0.0,1.9157,0.0013,401.80,0.33,270.4,35.3,138.08,30.10,24.65,36.37,0.04,-272.74,-272.75,-43,567,-935,24.4,6.1,-15.4,24.7,6.1,-15.2,5.73,2.42,-22.7,29.8
2012-10-17 00:46:00,0.0,1.9157,0.0010,401.92,0.30,267.0,32.0,138.08,30.10,24.65,36.36,0.04,-272.74,-272.75,-43,567,-935,24.4,6.0,-15.4,24.7,6.1,-15.2,5.73,2.42,-22.7,29.9
2012-10-17 00:47:00,0.0,1.9166,0.0009,401.78,0.33,269.5,31.4,138.08,30.11,24.65,36.37,0.04,-272.74,-272.75,-43,567,-934,24.4,6.1,-15.4,24.7,6.1,-15.2,5.73,2.39,-22.7,29.9
2012-10-17 00:48:00,0.0,1.9170,0.0011,401.90,0.29,267.9,33.1,138.08,30.11,24.64,36.36,0.04,-272.74,-272.74,-43,567,-935,24.4,6.1,-15.4,24.7,6.1,-15.1,5.73,2.36,-22.7,29.9
2012-10-17 00:49:00,0.0,1.9161,0.0009,401.82,0.35,272.1,30.6,138.08,30.11,24.64,36.36,0.04,-272.74,-272.75,-43,567,-935,24.4,6.1,-15.3,24.7,6.1,-15.1,5.73,2.35,-22.7,29.9
2012-10-17 00:50:00,0.0,1.9155,0.0012,401.66,0.32,273.1,28.4,138.08,30.11,24.65,36.37,0.04,-272.74,-272.74,-42,567,-934,24.4,6.2,-15.2,24.7,6.2,-15.0,5.73,2.38,-22.7,29.9
2012-10-17 00:51:00,0.0,1.9136,0.0013,401.68,0.30,268.0,27.9,138.08,30.11,24.65,36.36,0.04,-272.74,-272.75,-42,567,-935,24.4,6.2,-15.1,24.7,6.2,-14.9,5.73,2.42,-22.7,29.9
2012-10-17 00:52:00,0.0,1.9151,0.0009,401.75,0.29,270.5,30.4,138.08,30.12,24.65,36.36,0.04,-272.75,-272.75,-42,567,-935,24.3,6.2,-15.1,24.7,6.2,-14.9,5.73,2.42,-22.6,29.9
2012-10-17 00:53:00,0.0,1.9151,0.0009,401.69,0.29,272.6,35.9,138.08,30.12,24.64,36.36,0.04,-272.74,-272.74,-43,567,-935,24.3,6.3,-15.0,24.7,6.3,-14.8,5.73,2.39,-22.6,30.0
2012-10-17 00:54:00,0.0,1.9153,0.0011,401.69,0.35,273.0,31.7,138.08,30.12,24.64,36.36,0.04,-272.74,-272.74,-43,567,-934,24.4,6.3,-15.0,24.7,6.3,-14.7,5.73,2.35,-22.6,30.0
2012-10-17 00:55:00,0.0,1.9142,0.0012,401.70,0.32,274.2,31.8,138.08,30.13,24.65,36.36,0.04,-272.75,-272.75,-43,567,-935,24.4,6.3,-14.9,24.7,6.3,-14.7,5.73,2.35,-22.6,30.1
2012-10-17 00:56:00,0.0,1.9149,0.0014,401.79,0.26,270.8,34.8,138.08,30.13,24.65,36.36,0.04,-272.74,-272.74,-43,567,-935,24.3,6.4,-14.8,24.7,6.4,-14.6,5.73,2.39,-22.6,30.0
2012-10-17 00:57:00,0.0,1.9139,0.0020,401.60,0.33,272.6,31.4,138.08,30.13,24.65,36.36,0.04,-272.74,-272.74,-43,567,-934,24.3,6.4,-14.7,24.7,6.4,-14.5,5.73,2.43,-22.6,30.0
2012-10-17 00:58:00,0.0,1.9108,0.0015,401.58,0.34,273.3,29.7,138.08,30.13,24.65,36.36,0.04,-272.75,-272.75,-42,567,-934,24.3,6.6,-14.4,24.7,6.6,-14.2,5.73,2.41,-22.6,30.1
2012-10-17 00:59:00,0.0,1.9145,0.0014,401.69,0.27,271.8,30.6,138.08,30.13,24.64,36.36,0.04,-272.74,-272.75,-42,567,-935,24.3,6.7,-14.3,24.7,6.6,-14.1,5.73,2.38,-22.6,30.1
2012-10-17 01:00:00,0.0,1.9136,0.0016,401.56,0.29,271.8,30.7,138.08,30.14,24.65,36.36,0.04,-272.74,-272.74,-42,567,-935,24.3,6.6,-14.3,24.7,6.6,-14.1,5.73,2.34,-22.6,30.1
2012-10-17 01:01:00,0.0,1.9149,0.0013,401.66,0.28,275.4,31.5,138.08,30.14,24.65,36.36,0.04,-272.74,-272.74,-42,567,-935,24.4,6.6,-14.4,24.7,6.6,-14.2,5.73,2.35,-22.6,30.1
2012-10-17 01:02:00,0.0,1.9107,0.0010,401.46,0.33,271.2,29.7,138.08,30.14,24.65,36.36,0.04,-272.75,-272.75,-42,567,-934,24.4,6.6,-14.4,24.7,6.6,-14.2,5.73,2.40,-22.5,30.1
2012-10-17 01:03:00,0.0,1.9140,0.0014,401.64,0.36,276.0,31.1,138.08,30.15,24.65,36.36,0.04,-272.74,-272.74,-43,567,-934,24.4,6.6,-14.3,24.7,6.6,-14.1,5.73,2.43,-22.5,30.1
2012-10-17 01:04:00,0.0,1.9113,0.0013,401.49,0.27,277.6,31.4,138.08,30.15,24.64,36.36,0.04,-272.75,-272.74,-43,567,-935,24.4,6.6,-14.3,24.7,6.6,-14.1,5.73,2.40,-22.5,30.1
2012-10-17 01:05:00,0.0,1.9120,0.0014,401.57,0.26,274.2,33.9,138.08,30.15,24.64,36.36,0.04,-272.74,-272.75,-43,567,-935,24.4,6.7,-14.2,24.7,6.7,-14.0,5.73,2.34,-22.5,30.2
2012-10-17 01:06:00,0.0,1.9137,0.0022,401.72,0.32,279.1,31.1,138.08,30.16,24.65,36.36,0.04,-272.74,-272.74,-42,567,-934,24.4,6.7,-14.2,24.7,6.7,-14.0,5.73,2.34,-22.5,30.2
2012-10-17 01:07:00,0.0,1.9140,0.0021,401.56,0.31,285.6,32.6,138.08,30.16,24.65,36.37,0.04,-272.74,-272.74,-42,567,-934,24.4,6.7,-14.2,24.7,6.7,-14.0,5.73,2.40,-22.5,30.2
2012-10-17 01:08:00,0.0,1.9138,0.0021,401.75,0.37,292.3,28.7,138.08,30.16,24.65,36.36,0.04,-272.74,-272.74,-42,567,-935,24.4,6.7,-14.2,24.7,6.7,-14.0,5.73,2.43,-22.4,30.2
2012-10-17 01:09:00,0.0,1.9152,0.0018,401.76,0.27,289.4,36.6,138.08,30.16,24.64,36.36,0.04,-272.75,-272.74,-42,567,-935,24.4,6.7,-14.2,24.7,6.7,-14.0,5.73,2.38,-22.4,30.2
2012-10-17 01:10:00,0.0,1.9135,0.0014,401.55,0.29,292.9,31.6,138.08,30.17,24.64,36.37,0.04,-272.74,-272.74,-42,567,-934,24.4,6.7,-14.2,24.7,6.7,-14.0,5.73,2.33,-22.4,30.2
2012-10-17 01:11:00,0.0,1.9132,0.0023,401.63,0.31,284.8,32.4,138.08,30.17,24.65,36.37,0.04,-272.74,-272.74,-42,567,-934,24.4,6.8,-14.1,24.7,6.7,-13.8,5.73,2.37,-22.4,30.3
2012-10-17 01:12:00,0.0,1.9143,0.0017,401.57,0.33,283.4,31.1,138.08,30.17,24.65,36.37,0.04,-272.74,-272.75,-42,567,-935,24.4,6.8,-14.0,24.7,6.8,-13.8,5.73,2.43,-22.4,30.3
2012-10-17 01:13:00,0.0,1.9137,0.0013,401.66,0.26,288.7,36.3,138.08,30.18,24.65,36.37,0.04,-272.74,-272.75,-42,567,-935,24.4,6.8,-14.0,24.7,6.8,-13.8,5.73,2.41,-22.4,30.3
2012-10-17 01:14:00,0.0,1.9143,0.0014,401.66,0.36,290.9,34.1,138.08,30.18,24.65,36.37,0.04,-272.74,-272.75,-42,567,-934,24.4,6.8,-14.0,24.7,6.8,-13.8,5.73,2.35,-22.4,30.3
2012-10-17 01:15:00,0.0,1.9203,0.0019,401.94,0.28,286.1,39.9,138.08,30.18,24.65,36.36,0.04,-272.74,-272.75,-42,567,-935,24.4,6.8,-14.0,24.7,6.8,-13.8,5.73,2.33,-22.4,30.3
2012-10-17 01:16:00,0.0,1.9184,0.0016,401.80,0.23,279.0,38.9,138.08,30.18,24.65,36.37,0.04,-272.74,-272.75,-43,567,-935,24.4,6.7,-14.1,24.7,6.7,-13.9,5.73,2.38,-22.4,30.3
2012-10-17 01:17:00,0.0,1.9186,0.0008,401.71,0.31,285.4,29.4,138.08,30.19,24.64,36.36,0.04,-272.74,-272.75,-43,568,-935,24.4,6.7,-14.1,24.7,6.7,-13.9,5.73,2.43,-22.4,30.3
2012-10-17 01:18:00,0.0,1.9160,0.0012,401.69,0.36,278.5,27.4,138.08,30.19,24.65,36.36,0.04,-272.74,-272.74,-42,567,-935,24.4,6.7,-14.2,24.7,6.7,-13.9,5.73,2.40,-22.4,30.3
2012-10-17 01:19:00,0.0,1.9174,0.0008,401.72,0.29,280.8,35.9,138.08,30.19,24.64,36.36,0.04,-272.74,-272.74,-42,567,-935,24.4,6.7,-14.2,24.7,6.7,-14.0,5.73,2.34,-22.4,30.3
2012-10-17 01:20:00,0.0,1.9196,0.0016,401.93,0.29,286.0,35.9,138.08,30.19,24.65,36.36,0.04,-272.74,-272.74,-42,567,-935,24.4,6.7,-14.2,24.7,6.7,-14.0,5.73,2.35,-22.4,30.3
2012-10-17 01:21:00,0.0,1.9230,0.0014,401.96,0.34,281.4,37.2,138.08,30.19,24.65,36.36,0.04,-272.74,-272.74,-42,568,-935,24.4,6.7,-14.2,24.7,6.7,-14.0,5.73,2.41,-22.4,30.3
2012-10-17 01:22:00,0.0,1.9251,0.0018,402.03,0.26,282.2,31.2,138.08,30.19,24.65,36.36,0.04,-272.74,-272.74,-42,568,-935,24.4,6.6,-14.3,24.7,6.6,-14.1,5.73,2.42,-22.4,30.3
2012-10-17 01:23:00,0.0,1.9192,0.0015,401.89,0.31,280.0,35.7,138.08,30.20,24.65,36.36,0.04,-272.74,-272.74,-43,567,-935,24.4,6.6,-14.3,24.7,6.6,-14.1,5.73,2.38,-22.4,30.3
2012-10-17 01:24:00,0.0,1.9228,0.0010,401.88,0.25,286.4,36.1,138.08,30.20,24.65,36.36,0.04,-272.74,-272.75,-42,568,-935,24.4,6.6,-14.3,24.7,6.6,-14.1,5.73,2.33,-22.4,30.3
2012-10-17 01:25:00,0.0,1.9252,0.0027,402.00,0.29,289.9,36.1,138.08,30.20,24.65,36.36,0.04,-272.75,-272.75,-42,568,-935,24.4,6.6,-14.4,24.7,6.6,-14.2,5.73,2.36,-22.3,30.3
2012-10-17 01:26:00,0.0,1.9242,0.0023,401.76,0.30,282.3,38.8,138.08,30.20,24.65,36.37,0.04,-272.74,-272.75,-42,568,-935,24.4,6.6,-14.3,24.7,6.6,-14.1,5.73,2.42,-22.3,30.3
2012-10-17 01:27:00,0.0,1.9211,0.0012,401.81,0.28,284.7,34.1,138.08,30.20,24.65,36.36,0.04,-272.74,-272.74,-42,568,-935,24.4,6.6,-14.4,24.7,6.6,-14.2,5.73,2.42,-22.3,30.3
2012-10-17 01:28:00,0.0,1.9245,0.0013,401.85,0.29,287.0,36.1,138.08,30.20,24.65,36.37,0.04,-272.74,-272.74,-42,568,-935,24.4,6.6,-14.4,24.8,6.6,-14.2,5.73,2.37,-22.3,30.3
2012-10-17 01:29:00,0.0,1.9222,0.0021,401.86,0.33,281.7,32.2,138.08,30.20,24.65,36.36,0.04,-272.74,-272.74,-43,568,-935,24.4,6.5,-14.5,24.7,6.6,-14.2,5.73,2.33,-22.3,30.3
2012-10-17 01:30:00,0.0,1.9185,0.0025,401.72,0.26,280.6,31.8,138.08,30.21,24.65,36.37,0.04,-272.74,-272.74,-43,568,-935,24.4,6.6,-14.4,24.7,6.5,-14.2,5.73,2.37,-22.3,30.3
2012-10-17 01:31:00,0.0,1.9165,0.0009,401.63,0.33,284.6,35.1,138.08,30.21,24.65,36.37,0.04,-272.74,-272.74,-42,568,-935,24.4,6.6,-14.4,24.7,6.5,-14.2,5.73,2.42,-22.3,30.2
2012-10-17 01:32:00,0.0,1.9204,0.0019,401.73,0.28,279.2,27.7,138.08,30.21,24.65,36.36,0.04,-272.74,-272.74,-42,568,-935,24.4,6.6,-14.4,24.8,6.5,-14.2,5.73,2.41,-22.3,30.3
2012-10-17 01:33:00,0.0,1.9179,0.0022,401.71,0.29,290.0,29.2,138.08,30.21,24.64,36.37,0.04,-272.74,-272.74,-42,568,-935,24.4,6.6,-14.4,24.8,6.5,-14.2,5.73,2.36,-22.3,30.3
2012-10-17 01:34:00,0.0,1.9149,0.0010,401.67,0.28,285.8,33.5,138.08,30.22,24.65,36.36,0.04,-272.74,-272.74,-42,568,-935,24.4,6.6,-14.4,24.8,6.6,-14.2,5.73,2.34,-22.3,30.3
2012-10-17 01:35:00,0.0,1.9160,0.0017,401.58,0.32,286.6,32.6,138.08,30.22,24.65,36.37,0.04,-272.74,-272.75,-42,568,-935,24.4,6.6,-14.3,24.8,6.6,-14.1,5.73,2.38,-22.3,30.2
2012-10-17 01:36:00,0.0,1.9195,0.0012,401.72,0.32,289.5,33.3,138.08,30.22,24.64,36.37,0.04,-272.74,-272.74,-43,568,-935,24.4,6.6,-14.3,24.8,6.6,-14.1,5.73,2.43,-22.3,30.2
2012-10-17 01:37:00,0.0,1.9167,0.0011,401.82,0.28,281.4,28.4,138.08,30.23,24.65,36.36,0.04,-272.74,-272.75,-43,568,-935,24.4,6.6,-14.3,24.8,6.6,-14.1,5.73,2.40,-22.3,30.2
2012-10-17 01:38:00,0.0,1.9161,0.0016,401.85,0.34,293.4,35.5,138.08,30.23,24.65,36.36,0.04,-272.75,-272.75,-42,568,-935,24.4,6.6,-14.3,24.8,6.6,-14.0,5.73,2.35,-22.3,30.2
2012-10-17 01:39:00,0.0,1.9127,0.0010,401.73,0.28,281.4,27.8,138.08,30.23,24.65,36.36,0.04,-272.74,-272.75,-42,568,-935,24.4,6.7,-14.1,24.8,6.7,-13.9,5.73,2.34,-22.3,30.2
2012-10-17 01:40:00,0.0,1.9133,0.0012,401.69,0.30,280.5,35.2,138.08,30.23,24.65,36.36,0.04,-272.74,-272.74,-42,568,-935,24.4,6.8,-14.0,24.8,6.8,-13.8,5.73,2.39,-22.3,30.2
2012-10-17 01:41:00,0.0,1.9117,0.0012,401.83,0.33,284.2,32.0,138.08,30.23,24.65,36.36,0.04,-272.74,-272.74,-42,568,-935,24.4,6.9,-13.8,24.8,6.9,-13.6,5.73,2.43,-22.3,30.2
2012-10-17 01:42:00,0.0,1.9114,0.0009,401.81,0.31,281.0,32.0,138.08,30.23,24.65,36.37,0.04,-272.74,-272.74,-43,568,-935,24.4,7.0,-13.7,24.7,6.9,-13.5,5.73,2.41,-22.3,30.2
2012-10-17 01:43:00,0.0,1.9113,0.0009,401.73,0.29,296.3,34.4,138.08,30.24,24.65,36.36,0.04,-272.74,-272.74,-43,568,-936,24.4,7.0,-13.6,24.8,7.0,-13.4,5.73,2.35,-22.3,30.1
2012-10-17 01:44:00,0.0,1.9120,0.0015,401.82,0.32,291.9,30.5,138.08,30.24,24.65,36.36,0.04,-272.74,-272.74,-43,568,-935,24.4,7.0,-13.6,24.7,7.0,-13.4,5.73,2.34,-22.3,30.1
2012-10-17 01:45:00,0.0,1.9132,0.0010,401.93,0.33,287.8,28.6,138.08,30.24,24.65,36.35,0.04,-272.74,-272.74,-43,568,-935,24.5,6.9,-13.7,24.8,6.9,-13.5,5.73,2.38,-22.3,30.1
2012-10-17 01:46:00,0.0,1.9136,0.0018,401.74,0.27,285.8,30.6,138.08,30.24,24.65,36.36,0.04,-272.74,-272.75,-43,568,-935,24.5,6.9,-13.8,24.8,6.9,-13.5,5.73,2.43,-22.3,30.1
2012-10-17 01:47:00,0.0,1.9122,0.0009,401.89,0.30,291.4,33.6,138.08,30.24,24.65,36.36,0.04,-272.74,-272.74,-42,568,-935,24.5,6.9,-13.7,24.8,6.9,-13.5,5.73,2.42,-22.3,30.1
2012-10-17 01:48:00,0.0,1.9127,0.0015,401.74,0.31,288.3,29.4,138.08,30.24,24.65,36.37,0.04,-272.74,-272.74,-42,568,-935,24.5,7.0,-13.6,24.8,7.0,-13.4,5.73,2.36,-22.2,30.1
2012-10-17 01:49:00,0.0,1.9162,0.0032,401.87,0.26,282.5,30.5,138.08,30.24,24.64,36.36,0.04,-272.75,-272.74,-43,568,-935,24.5,7.0,-13.6,24.8,7.0,-13.4,5.73,2.34,-22.2,30.1
2012-10-17 01:50:00,0.0,1.9163,0.0030,401.91,0.30,284.5,32.9,138.08,30.24,24.65,36.36,0.04,-272.75,-272.74,-43,568,-935,24.5,6.9,-13.7,24.8,6.9,-13.5,5.73,2.37,-22.2,30.1
2012-10-17 01:51:00,0.0,1.9117,0.0008,401.88,0.35,285.7,34.6,138.08,30.24,24.65,36.36,0.04,-272.74,-272.74,-43,568,-935,24.5,6.9,-13.7,24.8,6.9,-13.5,5.73,2.41,-22.2,30.1
2012-10-17 01:52:00,0.0,1.9142,0.0029,401.90,0.34,298.1,27.5,138.08,30.24,24.65,36.36,0.04,-272.75,-272.75,-43,568,-935,24.5,6.9,-13.7,24.8,6.9,-13.5,5.73,2.43,-22.2,30.1
2012-10-17 01:53:00,0.0,1.9193,0.0023,401.74,0.27,290.6,37.7,138.08,30.25,24.64,36.36,0.04,-272.74,-272.75,-43,568,-935,24.5,6.9,-13.7,24.8,6.9,-13.5,5.73,2.38,-22.2,30.1
2012-10-17 01:54:00,0.0,1.9162,0.0013,401.57,0.30,285.7,29.3,138.08,30.25,24.65,36.37,0.04,-272.74,-272.75,-42,568,-935,24.5,6.9,-13.7,24.8,6.9,-13.5,5.73,2.34,-22.2,30.1
2012-10-17 01:55:00,0.0,1.9178,0.0024,401.91,0.28,300.5,29.2,138.08,30.25,24.65,36.36,0.04,-272.74,-272.74,-42,568,-935,24.5,6.9,-13.8,24.8,6.9,-13.5,5.73,2.35,-22.2,30.1
2012-10-17 01:56:00,0.0,1.9131,0.0009,401.68,0.33,296.2,30.7,138.08,30.26,24.65,36.37,0.04,-272.74,-272.75,-43,568,-935,24.5,6.9,-13.8,24.8,6.9,-13.5,5.73,2.40,-22.2,30.1
2012-10-17 01:57:00,0.0,1.9147,0.0013,401.80,0.35,291.0,26.0,138.08,30.26,24.65,36.36,0.04,-272.75,-272.74,-43,568,-935,24.6,6.9,-13.7,24.8,6.9,-13.5,5.73,2.43,-22.2,30.1
2012-10-17 01:58:00,0.0,1.9159,0.0012,401.84,0.31,296.2,29.7,138.08,30.26,24.65,36.36,0.04,-272.75,-272.74,-43,568,-935,24.5,6.9,-13.7,24.8,6.9,-13.5,5.73,2.39,-22.2,30.1
2012-10-17 01:59:00,0.0,1.9171,0.0010,402.02,0.31,302.7,31.8,138.08,30.26,24.64,36.36,0.04,-272.74,-272.74,-43,568,-935,24.5,6.9,-13.8,24.8,6.9,-13.5,5.73,2.34,-22.2,30.1
2012-10-17 02:00:00,0.0,1.9177,0.0017,401.89,0.31,289.9,28.6,138.08,30.26,24.65,36.37,0.04,-272.74,-272.74,-43,568,-935,24.5,6.9,-13.8,24.8,6.9,-13.6,5.73,2.34,-22.2,30.1
2012-10-17 02:01:00,0.0,1.9171,0.0013,401.90,0.29,297.7,38.1,138.08,30.26,24.65,36.36,0.04,-272.74,-272.75,-43,568,-935,24.5,6.9,-13.8,24.8,6.9,-13.6,5.73,2.39,-22.2,30.1
2012-10-17 02:02:00,0.0,1.9183,0.0013,401.98,0.24,297.9,35.6,138.08,30.26,24.65,36.36,0.04,-272.75,-272.74,-43,568,-935,24.6,6.9,-13.8,24.8,6.9,-13.5,5.73,2.43,-22.2,30.1
2012-10-17 02:03:00,0.0,1.9161,0.0014,401.90,0.33,294.9,29.7,138.08,30.27,24.65,36.37,0.04,-272.74,-272.74,-43,568,-935,24.5,6.9,-13.7,24.8,6.9,-13.5,5.73,2.40,-22.2,30.1
2012-10-17 02:04:00,0.0,1.9156,0.0023,401.92,0.30,290.0,37.1,138.08,30.27,24.65,36.36,0.04,-272.74,-272.75,-43,568,-935,24.6,6.9,-13.6,24.8,7.0,-13.4,5.73,2.35,-22.2,30.1
2012-10-17 02:05:00,0.0,1.9142,0.0010,401.89,0.29,296.1,28.2,138.08,30.27,24.65,36.36,0.04,-272.74,-272.75,-43,568,-935,24.6,7.0,-13.5,24.8,7.0,-13.3,5.73,2.34,-22.2,30.1
2012-10-17 02:06:00,0.0,1.9133,0.0012,401.80,0.29,285.8,31.6,138.08,30.27,24.65,36.37,0.04,-272.74,-272.74,-43,568,-935,24.6,7.1,-13.4,24.8,7.1,-13.2,5.73,2.37,-22.2,30.1
2012-10-17 02:07:00,0.0,1.9157,0.0010,401.82,0.28,290.1,33.6,138.08,30.27,24.65,36.37,0.04,-272.74,-272.74,-43,568,-935,24.6,7.1,-13.4,24.9,7.1,-13.2,5.73,2.42,-22.2,30.1
2012-10-17 02:08:00,0.0,1.9174,0.0012,401.84,0.28,291.0,30.5,138.08,30.27,24.65,36.36,0.04,-272.74,-272.75,-43,568,-935,24.6,7.0,-13.4,24.9,7.1,-13.2,5.73,2.42,-22.2,30.1
2012-10-17 02:09:00,0.0,1.9165,0.0015,401.87,0.29,299.2,33.1,138.08,30.27,24.65,36.36,0.04,-272.74,-272.75,-43,568,-935,24.6,7.1,-13.4,24.9,7.1,-13.2,5.73,2.36,-22.2,30.1
2012-10-17 02:10:00,0.0,1.9155,0.0020,401.96,0.31,297.2,30.1,138.08,30.28,24.65,36.36,0.29,-270.72,-272.17,-43,568,-935,24.6,7.1,-13.4,24.9,7.1,-13.1,5.42,2.41,-26.7,30.0
2012-10-17 02:11:00,0.0,1.9134,0.0010,401.78,0.26,295.3,29.7,138.08,30.28,24.65,36.37,0.04,-272.74,-272.74,-43,568,-935,24.6,7.1,-13.4,24.9,7.1,-13.1,5.73,2.36,-22.1,30.1
2012-10-17 02:12:00,0.0,1.9131,0.0010,401.81,0.31,302.5,29.1,138.08,30.28,24.65,36.36,0.04,-272.74,-272.75,-43,568,-935,24.6,7.1,-13.3,24.9,7.2,-13.0,5.73,2.41,-22.1,30.1
2012-10-17 02:13:00,0.0,1.9138,0.0011,401.89,0.31,300.6,29.2,138.08,30.28,24.65,36.36,0.04,-272.74,-272.74,-43,568,-935,24.6,7.1,-13.3,24.9,7.2,-13.0,5.73,2.42,-22.1,30.0
2012-10-17 02:14:00,0.0,1.9123,0.0010,401.73,0.32,303.1,30.7,138.08,30.28,24.65,36.36,0.04,-272.74,-272.74,-43,568,-935,24.6,7.1,-13.3,24.9,7.2,-13.0,5.73,2.38,-22.1,30.1
2012-10-17 02:15:00,0.0,1.9126,0.0010,401.70,0.28,300.9,30.6,138.08,30.29,24.65,36.37,0.04,-272.74,-272.74,-43,569,-935,24.6,7.1,-13.4,24.9,7.1,-13.1,5.73,2.34,-22.1,30.0
2012-10-17 02:16:00,0.0,1.9138,0.0013,401.86,0.31,303.0,32.1,138.08,30.29,24.65,36.36,0.04,-272.74,-272.75,-43,568,-935,24.6,7.0,-13.4,24.9,7.1,-13.2,5.73,2.35,-22.1,30.1